Regional Weather Roundup
Issued by NWS Boston, MA

Current Version | Previous Version | Text Only | Print | Product List | Glossary On
Versions: 1 2 3 4 5 6 7 8 9 10 11 12 13 14 15 16 17 18 19 20 21 22 23 24 25 26 27
000 ASUS41 KBOX 280310 RWRBOX REGIONAL WEATHER ROUNDUP NATIONAL WEATHER SERVICE TAUNTON MA 1100 PM EDT TUE JUN 27 2017 NOTE: "FAIR" INDICATES FEW OR NO CLOUDS BELOW 12,000 FEET WITH NO SIGNIFICANT WEATHER AND/OR OBSTRUCTIONS TO VISIBILITY. MAZALL-280400- EASTERN MASSACHUSETTS CITY SKY/WX TMP DP RH WIND PRES REMARKS BOSTON MOCLDY 61 55 81 W6 29.96R BEVERLY CLOUDY 58 57 97 W6 29.95R LAWRENCE MOCLDY 60 57 89 S3 29.97S BEDFORD PTCLDY 56 54 93 SW3 29.96R BLUE HILL N/A 56 54 93 MISG 29.96R NORWOOD CLOUDY 57 56 96 CALM 29.96R MARSHFIELD PTCLDY 59 55 88 S3 29.96S PLYMOUTH CLOUDY 61 53 75 CALM 29.97S TAUNTON CLOUDY 58 51 78 CALM 29.97S NEW BEDFORD MOCLDY 62 52 69 CALM 29.97R $$ MAZALL-280400- CAPE COD AND THE ISLANDS CITY SKY/WX TMP DP RH WIND PRES REMARKS FALMOUTH MOCLDY 66 63 88 W8 29.98R HYANNIS PTCLDY 67 63 87 W7 29.95S CHATHAM PTCLDY 67 64 90 SW5 29.98R PROVINCETOWN CLOUDY 61 54 77 N3 29.98R NANTUCKET PTCLDY 64 63 96 SW8 29.97S MARTHAS VNYRD MOCLDY 66 63 90 W5 29.97R $$ MAZALL-280400- CENTRAL AND WESTERN MASSACHUSETTS CITY SKY/WX TMP DP RH WIND PRES REMARKS WORCESTER CLEAR 54 50 86 W9 29.99R FITCHBURG PTCLDY 56 54 93 CALM 29.98S ORANGE FOG 51 51 100 CALM 29.98S VSB 1/4 SPRINGFIELD PTCLDY 52 51 95 CALM 29.98R WESTFIELD CLEAR 53 52 96 CALM N/A NORTH ADAMS CLEAR 51 50 96 W3 29.99R PITTSFIELD FOG 49 47 93 W5 29.98R VSB 1 $$ RIZALL-280400- RHODE ISLAND CITY SKY/WX TMP DP RH WIND PRES REMARKS PROVIDENCE CLOUDY 63 54 72 W6 29.98R NEWPORT CLOUDY 63 54 72 NW3 29.97R BLOCK ISLAND CLOUDY 64 58 80 W9 29.99R WESTERLY CLOUDY 64 58 80 CALM 29.98R $$ CTZALL-280400- CONNECTICUT CITY SKY/WX TMP DP RH WIND PRES REMARKS BRADLEY INTL PTCLDY 58 51 78 W3 29.99R HARTFORD CLEAR 58 56 93 CALM 29.98R BRIDGEPORT CLEAR 67 52 58 CALM 29.99R DANBURY CLEAR 56 51 84 CALM 30.01 GROTON CLOUDY 64 56 75 NW5 29.97R NEW HAVEN CLEAR 62 50 64 N6 29.99R CHESTER FAIR 63 48 59 VRB5 29.99S MERIDEN CLEAR 54 54 100 CALM 29.99R WILLIMANTIC PTCLDY 57 55 93 CALM 30.00R FOG OXFORD CLEAR 55 46 71 CALM 30.01R $$ MEZ002-015-021-024-NHZ003-005-008-011-012-014-VTZ005-008-280400- NORTHERN NEW ENGLAND CITY SKY/WX TMP DP RH WIND PRES REMARKS PORTLAND ME CLOUDY 57 54 89 W5 29.93F BANGOR ME CLOUDY 57 57 100 S5 29.93S CONCORD NH FOG 52 50 93 E3 29.96R VSB 3/4 MANCHESTER NH MOCLDY 57 53 86 SW6 29.95R NASHUA NH PTCLDY 56 54 93 W3 N/A PORTSMOUTH NH MOCLDY 56 54 93 CALM 29.94R JAFFREY NH CLEAR 52 52 100 CALM 29.99R KEENE NH CLEAR 51 50 96 S3 29.98S BURLINGTON VT CLOUDY 56 53 90 S6 29.94R MT. WASHINGTON FOG 37 37 100 W23 N/A VSB 0 WCI 26 $$ NYZ052-076-280400- EASTERN NEW YORK CITY SKY/WX TMP DP RH WIND PRES REMARKS ALBANY PTCLDY 53 49 86 W6 29.98R NEW YORK CITY PTCLDY 70 54 56 N8 29.99R $$ ANZALL-280400- MARINE OBSERVATIONS STATION/POSITION TIME TEMP WIND PRES VSBY WAVE AIR SEA DIR/SP/G HT/PER (UTC) (F) (DEG/KT/KT) (MB) (MI) (FT/S) BOSTON BUOY 0150 60 60 270/ 8/ 10 1015.3 1/ 3 BUZZARDS BAY 0200 65 260/ 8/ 8 1015.3R NANTUCKET SOUND 0250 66 1014.5R 1/ 3 MASS BAY-STELLWA NOT AVBL ISLE OF SHOALS 0300 59 140/ 2/ 3 1013.6F S OF BLOCK IS 0255 65 N/A 2/ 4 $$ ......................KEY......................... SKY/WX - SKY CONDITION/PRESENT WEATHER TMP - TEMPERATURE IN FAHRENHEIT DWPT - DEWPOINT IN FAHRENHEIT RH - RELATIVE HUMIDITY IN PERCENT WIND - DIRECTION AND SPEED IN MPH PRES - MEAN SEA LEVEL PRESSURE IN INCHES OF HG WCI - WIND CHILL INDEX VSB - VISIBILITY IN MILES HX - HEAT INDEX TC - TEMPERATURE IN CELSIUS VRB - VARIABLE WIND DIRECTION N/A - NOT AVAILABLE

USA.gov is the U.S. government's official web portal to all federal, state and local government web resources and services.